[[{"header":{"parameterUnit":"m.s-1","parameterCategory":2,"la1":30.2991,"la2":30.254,"lo1":-89.0895,"lo2":-89.0444,"dy":0.0017,"dx":0.0017,"nx":28,"ny":28,"refTime":"2024-06-07T03:00:00:Z","depth":"0","parameterNumber":2,"parameterNumberName":"U-component_of_CURRENTS"},"data":[0,0,0,0,0,0,0,0,0,0,0,0,0,0,0,0,0,0,0,0,0,0,0,0,0,0,0,0,0,0,0,0,0,0,0,0,0,0,0,0,0,0,0,0,0,0,0,0,0,0,0,0,0,0,0,0,0,0,-0.1872,-0.1872,0,-0.1928,-0.1928,-0.1928,-0.1906,-0.1904,-0.1903,-0.1902,-0.1895,-0.1896,-0.1897,0,0,0,0,0,0,0,0,0,0,0,0,0,-0.177,-0.1772,-0.1872,-0.1873,-0.1873,-0.1928,-0.1928,-0.1929,-0.1906,-0.1904,-0.1903,-0.1902,-0.1895,-0.1896,-0.1897,0,0,0,0,0,0,0,0,0,0,0,0,0,-0.1816,-0.1772,-0.1871,-0.1871,-0.1871,-0.1927,-0.1928,-0.1929,-0.1906,-0.1904,-0.1903,-0.1901,-0.1895,-0.1896,-0.1897,-0.1937,0,0,-0.1901,-0.1901,0,0,0,0,0,0,0,0,-0.1814,-0.182,-0.187,-0.1871,-0.1872,-0.191,-0.189,-0.1929,-0.1906,-0.189,-0.1902,-0.19,-0.1897,-0.1898,-0.1909,-0.1936,-0.1936,-0.1901,-0.1901,-0.1902,-0.1902,0,0,0,0,0,0,0,-0.1811,-0.1817,-0.1891,-0.1871,-0.1872,-0.1877,-0.1881,-0.1897,-0.1899,-0.1891,-0.189,-0.1902,-0.1897,-0.1908,-0.1909,-0.1936,-0.1901,-0.1902,-0.1903,-0.1903,-0.2029,-0.2032,0,0,0,0,0,0,-0.181,-0.1815,-0.1889,-0.1893,-0.1841,-0.188,-0.1884,-0.1897,-0.19,-0.19,-0.1903,-0.19,-0.1907,-0.1907,-0.1908,-0.1949,-0.1902,-0.1903,-0.1904,-0.2027,-0.203,-0.2033,0,0,0,0,0,0,-0.1808,-0.1816,-0.1887,-0.1857,-0.1866,-0.1883,-0.1898,-0.1899,-0.1903,-0.191,-0.1908,-0.1904,-0.1906,-0.1907,-0.193,-0.1948,-0.1904,-0.1905,-0.2024,-0.2028,-0.2031,-0.2034,0,0,0,0,0,0,-0.1805,-0.1815,-0.182,-0.1857,-0.1868,-0.1923,-0.19,-0.1902,-0.1914,-0.1911,-0.1911,-0.1909,-0.1905,-0.1929,-0.1932,-0.1949,-0.1906,-0.202,-0.2026,-0.203,-0.2031,-0.2038,-0.2044,0,0,0,0,0,-0.1801,-0.1816,-0.1819,-0.1828,-0.1875,-0.1924,-0.1931,-0.1935,-0.1916,-0.1929,-0.1931,-0.1909,-0.1963,-0.1932,-0.1934,-0.1953,-0.2018,-0.2024,-0.203,-0.2028,-0.2036,-0.2044,0,0,0,0,0,0,-0.1772,-0.1817,-0.1821,-0.1847,-0.1884,-0.1921,-0.1933,-0.1937,-0.195,-0.1941,-0.1934,-0.1934,-0.1961,-0.1972,-0.1938,-0.2012,-0.1991,-0.1998,-0.1989,-0.1997,-0.2003,-0.1992,-0.1907,0,0,0,0,0,-0.1771,-0.1791,-0.1838,-0.1858,-0.1877,-0.1904,-0.1921,-0.1932,-0.1952,-0.1955,-0.196,-0.1975,-0.1994,-0.2003,-0.2023,-0.2061,-0.2041,-0.2083,-0.2089,-0.2094,-0.2093,-0.2088,-0.2092,-0.2052,-0.2052,-0.2052,0,0,-0.1764,-0.1792,-0.1802,-0.1853,-0.1877,-0.1923,-0.1909,-0.1943,-0.1974,-0.1954,-0.1987,-0.1991,-0.201,-0.2048,-0.2063,-0.2053,-0.2096,-0.2102,-0.2105,-0.2101,-0.2095,-0.2098,-0.21,-0.2056,-0.2056,-0.2055,0,0,-0.1782,-0.1789,-0.1823,-0.1856,-0.1905,-0.1929,-0.194,-0.1985,-0.1992,-0.2035,-0.2026,-0.2043,-0.2082,-0.2095,-0.2107,-0.2169,-0.2126,-0.2183,-0.2204,-0.2199,-0.2201,-0.2202,-0.2167,-0.2165,-0.2189,-0.219,-0.219,0,-0.1772,-0.1823,-0.184,-0.1887,-0.1912,-0.1934,-0.1979,-0.2005,-0.205,-0.2057,-0.2049,-0.2098,-0.2107,-0.2142,-0.2164,-0.2179,-0.2156,-0.216,-0.2201,-0.2203,-0.2204,-0.2167,-0.2165,-0.219,-0.219,-0.219,-0.219,0,-0.1827,-0.1865,-0.1886,-0.195,-0.1978,-0.2019,-0.206,-0.2085,-0.2093,-0.2113,-0.2142,-0.2158,-0.218,-0.2197,-0.2196,-0.2222,-0.2194,-0.2199,-0.2165,-0.2207,-0.2167,-0.2165,-0.2192,-0.2191,-0.2191,-0.2191,0,0,-0.1806,-0.1908,-0.1913,-0.1942,-0.201,-0.2033,-0.2087,-0.2133,-0.2146,-0.2184,-0.2199,-0.2241,-0.2227,-0.2242,-0.2242,-0.2246,-0.223,-0.2226,-0.2225,-0.2161,-0.2189,-0.2106,-0.2094,-0.2229,-0.223,-0.223,-0.215,0,-0.1843,-0.1936,-0.1974,-0.2038,-0.2081,-0.2106,-0.2146,-0.218,-0.2201,-0.2222,-0.2234,-0.2251,-0.2252,-0.2249,-0.2256,-0.2239,-0.2227,-0.225,-0.2185,-0.2183,-0.2079,-0.2091,-0.1993,-0.1908,-0.2147,-0.2147,-0.2146,0,-0.1887,-0.1935,-0.2018,-0.2071,-0.2087,-0.2119,-0.2149,-0.2189,-0.2226,-0.2239,-0.2257,-0.226,-0.2275,-0.2266,-0.2247,-0.2256,-0.2222,-0.2206,-0.2202,-0.2121,-0.2095,-0.1914,-0.1894,-0.1886,-0.2142,-0.2142,-0.2143,0,-0.1865,-0.1955,-0.2013,-0.2036,-0.2111,-0.212,-0.2142,-0.2182,-0.2198,-0.2236,-0.2242,-0.2264,-0.2257,-0.2244,-0.2212,-0.2224,-0.2169,-0.2184,-0.2074,-0.2067,-0.197,-0.1954,-0.191,-0.2159,-0.2159,-0.2159,-0.216,0,-0.1892,-0.1929,-0.1997,-0.2024,-0.2033,-0.209,-0.2102,-0.213,-0.2172,-0.218,-0.223,-0.223,-0.225,-0.2225,-0.2202,-0.2116,-0.2157,-0.2066,-0.2043,-0.1969,-0.1954,-0.1933,-0.1972,-0.2156,-0.2157,-0.2158,-0.2158,0,-0.187,-0.1942,-0.1978,-0.203,-0.2032,-0.2024,-0.205,-0.2058,-0.2117,-0.2127,-0.2136,-0.2187,-0.2155,-0.2151,-0.2116,-0.2079,-0.1986,-0.1982,-0.1877,-0.1842,-0.1734,-0.1777,-0.1727,-0.1675,-0.1848,-0.1845,-0.1843,0,-0.1871,-0.1903,-0.1937,-0.1923,-0.1937,-0.1939,-0.1937,-0.2005,-0.2021,-0.2088,-0.2082,-0.2081,-0.2047,-0.1967,-0.1909,-0.1829,-0.1872,-0.1705,-0.1723,-0.1701,-0.1733,-0.1782,-0.1747,-0.1592,-0.1588,-0.1585,-0.1582,0,-0.1824,-0.1843,-0.1851,-0.1828,-0.1814,-0.1812,-0.1821,-0.1832,-0.1915,-0.1935,-0.194,-0.1919,-0.1861,-0.1747,-0.1665,-0.1614,-0.167,-0.1634,-0.1647,-0.1554,-0.157,-0.1516,-0.1662,-0.1553,-0.1556,-0.1558,-0.1559,-0.1561,-0.1742,-0.1717,-0.172,-0.168,-0.1674,-0.1657,-0.1617,-0.1661,-0.1662,-0.167,-0.1743,-0.1686,-0.1647,-0.1509,-0.1453,-0.1347,-0.1433,-0.1322,-0.138,-0.1434,-0.1378,-0.1441,-0.129,-0.1292,-0.1293,-0.1294,-0.1295,0,-0.1612,-0.1604,-0.1564,-0.152,-0.147,-0.1512,-0.151,-0.1463,-0.1422,-0.1475,-0.1456,-0.1416,-0.1307,-0.1289,-0.12,-0.1132,-0.1116,-0.112,-0.1182,-0.1159,-0.1225,-0.1206,-0.0987,-0.0987,-0.0987,-0.0987,-0.0987,-0.0987,-0.1543,-0.1474,-0.1451,-0.1313,-0.1288,-0.1187,-0.1159,-0.1123,-0.1132,-0.1086,-0.1092,-0.1098,-0.1138,-0.1253,-0.116,-0.1086,-0.1088,-0.1039,-0.1087,-0.1161,-0.1185,-0.1209,-0.1198,-0.098,-0.098,-0.0956,-0.0956,-0.0956]},{"header":{"parameterUnit":"m.s-1","parameterCategory":2,"la1":30.2991,"la2":30.254,"lo1":-89.0895,"lo2":-89.0444,"dy":0.0017,"dx":0.0017,"nx":28,"ny":28,"refTime":"2024-06-07T03:00:00:Z","depth":"0","parameterNumber":3,"parameterNumberName":"V-component_of_CURRENTS"},"data":[0,0,0,0,0,0,0,0,0,0,0,0,0,0,0,0,0,0,0,0,0,0,0,0,0,0,0,0,0,0,0,0,0,0,0,0,0,0,0,0,0,0,0,0,0,0,0,0,0,0,0,0,0,0,0,0,0,0,-0.013,-0.0129,0,-0.0061,-0.006,-0.006,-0.0003,-0.0002,-0.0002,-0.0002,0.0115,0.0118,0.012,0,0,0,0,0,0,0,0,0,0,0,0,0,-0.0168,-0.0168,-0.013,-0.0129,-0.0129,-0.0061,-0.006,-0.0059,-0.0003,-0.0002,-0.0002,-0.0001,0.0114,0.0118,0.0121,0,0,0,0,0,0,0,0,0,0,0,0,0,-0.013,-0.0168,-0.013,-0.0093,-0.0089,-0.0062,-0.006,-0.0059,-0.0003,-0.0002,-0.0002,-0.0001,0.0113,0.0117,0.0121,0.0131,0,0,0.0133,0.0135,0,0,0,0,0,0,0,0,-0.0132,-0.0128,-0.0099,-0.0096,-0.0091,-0.0041,-0.0031,0.0006,-0.0003,-0.0035,-0.0001,-0.0001,0.0066,0.0074,0.0086,0.0136,0.0141,0.0134,0.0136,0.0138,0.0139,0,0,0,0,0,0,0,-0.0135,-0.0131,-0.0102,-0.0099,-0.0094,-0.0065,-0.0059,-0.0023,0.0013,-0.0032,-0.0028,-0.0022,0.0069,0.0082,0.009,0.0143,0.0134,0.0137,0.014,0.0141,0.0217,0.0216,0,0,0,0,0,0,-0.0149,-0.0133,-0.0104,-0.01,-0.0112,-0.0065,-0.0058,-0.0057,0.0011,0.0022,-0.0023,-0.002,0.0075,0.0085,0.0094,0.0105,0.0138,0.0141,0.0144,0.0217,0.0217,0.0216,0,0,0,0,0,0,-0.015,-0.0147,-0.0107,-0.0115,-0.0108,-0.0066,-0.0064,-0.0056,-0.0041,0.0017,0.0029,-0.0017,0.0076,0.0088,0.0122,0.011,0.0143,0.0147,0.0218,0.0217,0.0216,0.0129,0,0,0,0,0,0,-0.0151,-0.0148,-0.0153,-0.0117,-0.0109,-0.01,-0.0065,-0.0055,-0.004,-0.0035,0.0026,0.0038,0.0078,0.0115,0.0126,0.0116,0.015,0.0218,0.0217,0.0217,0.0133,0.0126,0.012,0,0,0,0,0,-0.0153,-0.0169,-0.0154,-0.0151,-0.0117,-0.01,-0.0094,-0.0059,-0.004,-0.0042,0.0002,0.0036,0.0118,0.0118,0.013,0.0122,0.0218,0.0217,0.0217,0.0136,0.0127,0.012,0,0,0,0,0,0,-0.0185,-0.0163,-0.0147,-0.0154,-0.0132,-0.0091,-0.0091,-0.0066,-0.0033,-0.0026,0.0032,0.0046,0.0069,0.0108,0.0107,0.0142,0.0174,0.0175,0.0108,0.0101,0.0094,0.0084,0.0153,0,0,0,0,0,-0.0197,-0.0203,-0.0172,-0.0177,-0.0171,-0.0131,-0.012,-0.0097,-0.0063,-0.0048,-0.0006,0.004,0.0074,0.0097,0.0132,0.0153,0.0189,0.0156,0.015,0.0144,0.0144,0.0176,0.0172,0.0213,0.0213,0.0213,0,0,-0.021,-0.0199,-0.0202,-0.0185,-0.0165,-0.0166,-0.0123,-0.0114,-0.0108,-0.004,-0.0023,0.0016,0.0073,0.0093,0.0108,0.0127,0.0152,0.0143,0.0138,0.0141,0.0175,0.0171,0.0167,0.0213,0.0213,0.0213,0,0,-0.0252,-0.0232,-0.0256,-0.0242,-0.0221,-0.0195,-0.0196,-0.016,-0.0139,-0.0118,-0.007,-0.0039,0.0016,0.0052,0.0079,0.006,0.0112,0.0072,0.0037,0.0067,0.0064,0.0062,0.0099,0.01,0.0074,0.0073,0.0073,0,-0.027,-0.0292,-0.026,-0.0276,-0.0269,-0.0214,-0.0232,-0.0203,-0.016,-0.0144,-0.0124,-0.005,-0.0004,0.0025,0.0021,0.0045,0.0074,0.0058,0.0058,0.0056,0.0055,0.0094,0.0097,0.0069,0.007,0.007,0.0071,0,-0.0329,-0.0342,-0.0354,-0.0355,-0.0342,-0.0347,-0.0304,-0.0284,-0.0249,-0.0217,-0.0184,-0.0125,-0.0078,-0.0062,-0.0022,-0.0007,0.002,0.0039,0.0072,0.0045,0.0089,0.0093,0.0063,0.0065,0.0066,0.0067,0,0,-0.0376,-0.0397,-0.0398,-0.0409,-0.0383,-0.0376,-0.0365,-0.0338,-0.0326,-0.028,-0.0268,-0.0207,-0.017,-0.0137,-0.0087,-0.0055,-0.0036,-0.0013,-0.001,0.0015,0.0036,0.0088,0.0098,-0.0019,-0.0019,-0.0019,0.0067,0,-0.0431,-0.0492,-0.0475,-0.0504,-0.0526,-0.0467,-0.0458,-0.0419,-0.0378,-0.0349,-0.0282,-0.0252,-0.0199,-0.0179,-0.0141,-0.006,-0.0027,-0.006,0.0066,0.007,0.0113,0.0104,0.0163,0.0247,0.0072,0.0073,0.0074,0,-0.0498,-0.0523,-0.0587,-0.058,-0.058,-0.0581,-0.0545,-0.0528,-0.0466,-0.0434,-0.0389,-0.0333,-0.0272,-0.0231,-0.0112,-0.0135,-0.0059,0.0003,0.0008,0.0092,0.0131,0.0248,0.0263,0.0425,0.0081,0.0081,0.008,0,-0.0565,-0.0592,-0.0648,-0.0649,-0.0638,-0.0637,-0.0612,-0.056,-0.0543,-0.0489,-0.0475,-0.0393,-0.0351,-0.0252,-0.0111,-0.0115,0.0022,0.0034,0.0152,0.0157,0.0251,0.0264,0.0432,0.0107,0.0107,0.0107,0.0107,0,-0.0642,-0.0675,-0.0683,-0.0711,-0.0733,-0.0697,-0.0704,-0.0664,-0.0621,-0.0607,-0.0527,-0.0494,-0.0356,-0.0255,-0.0133,0.0033,0.0009,0.0149,0.0182,0.0223,0.0232,0.0413,0.0474,0.011,0.0109,0.0109,0.0108,0,-0.0726,-0.0743,-0.079,-0.0786,-0.078,-0.0793,-0.0759,-0.0755,-0.071,-0.0692,-0.0679,-0.0568,-0.0425,-0.0273,-0.0098,0.0009,0.0268,0.0221,0.0266,0.0302,0.0554,0.0606,0.0792,0.0891,0.0359,0.036,0.0362,0,-0.0781,-0.0827,-0.0846,-0.0861,-0.0864,-0.0866,-0.0861,-0.081,-0.0801,-0.0727,-0.0721,-0.059,-0.0468,-0.0188,0.0029,0.0254,0.0366,0.0421,0.0425,0.0584,0.0667,0.0693,0.0764,0.0517,0.052,0.0522,0.0524,0,-0.0864,-0.0879,-0.0908,-0.0939,-0.0949,-0.0955,-0.0942,-0.0947,-0.0884,-0.0844,-0.0748,-0.0643,-0.0363,-0.0066,0.0215,0.0347,0.0557,0.0472,0.0631,0.0803,0.085,0.0955,0.0446,0.0543,0.0541,0.054,0.0539,0.0538,-0.0905,-0.0939,-0.0972,-0.0996,-0.1011,-0.1024,-0.1019,-0.0983,-0.0947,-0.0833,-0.0753,-0.0512,-0.0132,0.029,0.0446,0.0793,0.0735,0.0897,0.0946,0.0957,0.1061,0.0595,0.0731,0.073,0.0729,0.0729,0.0728,0,-0.0936,-0.0975,-0.1011,-0.1039,-0.1061,-0.1053,-0.1049,-0.1008,-0.0938,-0.0768,-0.0622,-0.0128,0.0258,0.0619,0.106,0.1258,0.1298,0.1349,0.1413,0.1462,0.1058,0.1076,0.13,0.13,0.13,0.13,0.13,0.1299,-0.0953,-0.1008,-0.1023,-0.1063,-0.1077,-0.1076,-0.1066,-0.0979,-0.0837,-0.0501,-0.0167,0.0108,0.0591,0.1223,0.1641,0.1682,0.1869,0.1848,0.1931,0.1668,0.163,0.1593,0.1627,0.1963,0.1964,0.2337,0.2341,0.2344]}],[{"header":{"parameterUnit":"m.s-1","parameterCategory":2,"la1":30.2991,"la2":30.254,"lo1":-89.0895,"lo2":-89.0444,"dy":0.0017,"dx":0.0017,"nx":28,"ny":28,"refTime":"2024-06-07T03:00:00:Z","depth":"2","parameterNumber":2,"parameterNumberName":"U-component_of_CURRENTS"},"data":[0,0,0,0,0,0,0,0,0,0,0,0,0,0,0,0,0,0,0,0,0,0,0,0,0,0,0,0,0,0,0,0,0,0,0,0,0,0,0,0,0,0,0,0,0,0,0,0,0,0,0,0,0,0,0,0,0,0,-0.1709,-0.171,0,-0.176,-0.176,-0.1761,-0.1744,-0.1743,-0.1742,-0.1742,-0.1743,-0.1744,-0.1745,0,0,0,0,0,0,0,0,0,0,0,0,0,-0.1618,-0.1619,-0.1709,-0.171,-0.1711,-0.176,-0.176,-0.1761,-0.1744,-0.1743,-0.1742,-0.1741,-0.1743,-0.1744,-0.1745,0,0,0,0,0,0,0,0,0,0,0,0,0,-0.166,-0.162,-0.1709,-0.171,-0.1711,-0.176,-0.176,-0.1761,-0.1744,-0.1743,-0.1742,-0.1741,-0.1742,-0.1744,-0.1745,-0.1779,0,0,-0.1749,-0.1749,0,0,0,0,0,0,0,0,-0.1657,-0.1663,-0.1709,-0.171,-0.1711,-0.1747,-0.1729,-0.1765,-0.1745,-0.1729,-0.1742,-0.174,-0.1742,-0.1744,-0.1753,-0.1779,-0.1779,-0.1749,-0.175,-0.175,-0.1751,0,0,0,0,0,0,0,-0.1654,-0.1661,-0.1726,-0.171,-0.1711,-0.1716,-0.172,-0.1736,-0.1739,-0.173,-0.173,-0.174,-0.1742,-0.1752,-0.1753,-0.1779,-0.1749,-0.175,-0.1751,-0.1751,-0.1855,-0.1857,0,0,0,0,0,0,-0.1654,-0.1658,-0.1725,-0.1728,-0.1683,-0.1718,-0.1723,-0.1734,-0.174,-0.1741,-0.1741,-0.1739,-0.175,-0.1751,-0.1753,-0.1796,-0.175,-0.1752,-0.1752,-0.1853,-0.1855,-0.1857,0,0,0,0,0,0,-0.1652,-0.1659,-0.1723,-0.1696,-0.1705,-0.1722,-0.1735,-0.1736,-0.1742,-0.175,-0.1749,-0.1745,-0.1749,-0.1751,-0.1778,-0.1796,-0.1752,-0.1753,-0.185,-0.1853,-0.1856,-0.1881,0,0,0,0,0,0,-0.1649,-0.1658,-0.1664,-0.1696,-0.1706,-0.1755,-0.1736,-0.1738,-0.1752,-0.1749,-0.1753,-0.1752,-0.1749,-0.1777,-0.178,-0.1797,-0.1754,-0.1848,-0.1852,-0.1855,-0.1877,-0.1884,-0.189,0,0,0,0,0,-0.1646,-0.1659,-0.1664,-0.1672,-0.1714,-0.1757,-0.1762,-0.1768,-0.1753,-0.1765,-0.1772,-0.1751,-0.1802,-0.178,-0.1783,-0.18,-0.1846,-0.1851,-0.1855,-0.1874,-0.1883,-0.189,0,0,0,0,0,0,-0.162,-0.166,-0.1665,-0.1689,-0.1722,-0.1755,-0.1765,-0.1771,-0.1787,-0.178,-0.1776,-0.1777,-0.1807,-0.181,-0.1785,-0.1845,-0.1822,-0.1827,-0.1836,-0.1843,-0.1849,-0.1838,-0.1755,0,0,0,0,0,-0.162,-0.1639,-0.1681,-0.1699,-0.1716,-0.1741,-0.1756,-0.1766,-0.1787,-0.1792,-0.1799,-0.1812,-0.1832,-0.184,-0.1858,-0.1892,-0.1872,-0.1908,-0.1914,-0.1919,-0.1916,-0.1915,-0.1919,-0.1872,-0.1872,-0.1872,0,0,-0.1616,-0.164,-0.165,-0.1695,-0.1716,-0.1757,-0.1745,-0.1776,-0.1805,-0.1791,-0.1825,-0.1832,-0.1847,-0.1883,-0.1897,-0.1884,-0.1923,-0.1925,-0.1929,-0.1922,-0.192,-0.1924,-0.1927,-0.1875,-0.1874,-0.1874,0,0,-0.1626,-0.1639,-0.1664,-0.1697,-0.174,-0.1763,-0.1773,-0.1813,-0.1822,-0.1865,-0.1861,-0.1881,-0.1915,-0.1929,-0.1939,-0.1995,-0.1955,-0.2003,-0.2022,-0.2022,-0.2024,-0.2027,-0.1996,-0.1995,-0.2006,-0.2006,-0.2006,0,-0.1617,-0.1658,-0.1678,-0.1717,-0.1744,-0.1767,-0.1806,-0.1832,-0.1876,-0.1885,-0.1879,-0.1928,-0.1938,-0.1975,-0.1995,-0.2006,-0.1986,-0.1986,-0.2026,-0.2028,-0.203,-0.1998,-0.1997,-0.2007,-0.2007,-0.2007,-0.2007,0,-0.1656,-0.169,-0.1708,-0.1764,-0.1795,-0.1833,-0.1876,-0.1902,-0.1914,-0.1935,-0.1968,-0.1987,-0.2009,-0.2024,-0.2025,-0.2052,-0.2026,-0.2029,-0.1996,-0.2035,-0.2,-0.1998,-0.201,-0.2009,-0.2009,-0.2008,0,0,-0.1627,-0.1717,-0.1722,-0.1752,-0.1822,-0.1849,-0.1901,-0.1948,-0.1965,-0.2002,-0.2021,-0.2065,-0.2056,-0.2069,-0.2073,-0.2077,-0.2074,-0.2059,-0.2058,-0.2009,-0.2045,-0.1963,-0.1952,-0.2077,-0.2077,-0.2077,-0.2009,0,-0.1648,-0.1721,-0.1764,-0.1827,-0.1866,-0.1906,-0.1948,-0.1989,-0.2014,-0.2041,-0.2056,-0.2078,-0.208,-0.2082,-0.2091,-0.2082,-0.2072,-0.209,-0.2031,-0.2029,-0.1936,-0.195,-0.1814,-0.1737,-0.2007,-0.2007,-0.2007,0,-0.1666,-0.1714,-0.1779,-0.1851,-0.1869,-0.1909,-0.1957,-0.2,-0.2045,-0.2061,-0.2084,-0.2091,-0.2111,-0.2102,-0.2093,-0.21,-0.2073,-0.2059,-0.2056,-0.1968,-0.1944,-0.1747,-0.1723,-0.2003,-0.2004,-0.2004,-0.2004,0,-0.1617,-0.1716,-0.176,-0.179,-0.1881,-0.1904,-0.1943,-0.1996,-0.202,-0.2064,-0.2074,-0.2102,-0.2101,-0.2092,-0.2066,-0.2077,-0.2035,-0.2048,-0.1943,-0.1936,-0.1802,-0.1783,-0.2028,-0.2028,-0.2028,-0.2028,-0.2029,0,-0.161,-0.1645,-0.1741,-0.1763,-0.1804,-0.1874,-0.1906,-0.195,-0.2001,-0.2018,-0.2069,-0.2074,-0.2098,-0.2079,-0.206,-0.1983,-0.2026,-0.1935,-0.1915,-0.1807,-0.179,-0.2014,-0.2013,-0.2026,-0.2026,-0.2027,-0.2027,0,-0.1544,-0.1613,-0.1666,-0.1757,-0.1781,-0.1803,-0.1875,-0.1894,-0.1956,-0.1978,-0.1989,-0.2042,-0.2016,-0.2014,-0.1987,-0.1953,-0.1906,-0.1865,-0.172,-0.1684,-0.1806,-0.1808,-0.1744,-0.174,-0.1737,-0.1735,-0.1733,0,-0.1517,-0.1536,-0.163,-0.1651,-0.169,-0.1737,-0.1762,-0.1849,-0.1875,-0.1946,-0.1946,-0.1948,-0.1915,-0.1846,-0.1788,-0.1713,-0.1803,-0.156,-0.1566,-0.1792,-0.1779,-0.1785,-0.1791,-0.1394,-0.139,-0.1386,-0.1383,0,-0.1451,-0.1481,-0.1521,-0.1563,-0.1596,-0.1634,-0.1683,-0.1701,-0.1792,-0.1812,-0.1818,-0.1795,-0.1736,-0.1602,-0.1524,-0.1475,-0.1567,-0.1479,-0.1747,-0.1493,-0.1458,-0.1447,-0.1465,-0.1349,-0.1352,-0.1355,-0.1357,-0.1358,-0.1384,-0.1392,-0.1434,-0.1461,-0.1497,-0.1508,-0.1493,-0.1555,-0.1566,-0.1573,-0.1635,-0.1558,-0.1544,-0.134,-0.1257,-0.1199,-0.1314,-0.1277,-0.1291,-0.1308,-0.1285,-0.1248,-0.1093,-0.1095,-0.1096,-0.1098,-0.1099,0,-0.1297,-0.1309,-0.1327,-0.1354,-0.1335,-0.1391,-0.1416,-0.138,-0.135,-0.1377,-0.1351,-0.12,-0.1101,-0.1092,-0.0938,-0.0904,-0.0911,-0.0879,-0.0902,-0.0935,-0.0965,-0.0927,-0.0639,-0.0637,-0.0636,-0.0635,0,0,-0.1252,-0.123,-0.1238,-0.1178,-0.1186,-0.112,-0.1103,-0.1074,-0.1067,-0.1003,-0.0969,-0.1039,-0.1055,-0.0855,-0.0801,-0.0694,-0.0807,-0.0652,-0.1021,-0.108,-0.1108,-0.119,-0.1168,0,0,0,0,0]},{"header":{"parameterUnit":"m.s-1","parameterCategory":2,"la1":30.2991,"la2":30.254,"lo1":-89.0895,"lo2":-89.0444,"dy":0.0017,"dx":0.0017,"nx":28,"ny":28,"refTime":"2024-06-07T03:00:00:Z","depth":"2","parameterNumber":3,"parameterNumberName":"V-component_of_CURRENTS"},"data":[0,0,0,0,0,0,0,0,0,0,0,0,0,0,0,0,0,0,0,0,0,0,0,0,0,0,0,0,0,0,0,0,0,0,0,0,0,0,0,0,0,0,0,0,0,0,0,0,0,0,0,0,0,0,0,0,0,0,-0.0098,-0.0098,0,-0.0034,-0.0034,-0.0033,0.0019,0.0019,0.0019,0.002,0.0128,0.013,0.0133,0,0,0,0,0,0,0,0,0,0,0,0,0,-0.0133,-0.0133,-0.0098,-0.0098,-0.0097,-0.0035,-0.0034,-0.0033,0.0019,0.0019,0.002,0.002,0.0127,0.013,0.0133,0,0,0,0,0,0,0,0,0,0,0,0,0,-0.0098,-0.0133,-0.0098,-0.0065,-0.0061,-0.0035,-0.0034,-0.0032,0.0018,0.0019,0.002,0.002,0.0126,0.013,0.0133,0.0144,0,0,0.0145,0.0146,0,0,0,0,0,0,0,0,-0.01,-0.0097,-0.007,-0.0067,-0.0063,-0.0016,-0.0006,0.0028,0.0018,-0.0011,0.002,0.0021,0.0083,0.009,0.0102,0.0149,0.0153,0.0145,0.0147,0.0149,0.015,0,0,0,0,0,0,0,-0.0103,-0.0099,-0.0072,-0.007,-0.0065,-0.0038,-0.0033,0.0001,0.0033,-0.0008,-0.0004,0.0001,0.0085,0.0098,0.0105,0.0155,0.0145,0.0148,0.0151,0.0152,0.0219,0.0219,0,0,0,0,0,0,-0.0116,-0.0101,-0.0074,-0.007,-0.0082,-0.0039,-0.0032,-0.0031,0.0032,0.0042,0.0,0.0003,0.0091,0.01,0.0109,0.0122,0.0149,0.0152,0.0155,0.022,0.0219,0.0219,0,0,0,0,0,0,-0.0117,-0.0114,-0.0076,-0.0085,-0.0078,-0.0039,-0.0038,-0.003,-0.0017,0.0038,0.0048,0.0006,0.0092,0.0103,0.0135,0.0127,0.0154,0.0158,0.022,0.022,0.0219,0.015,0,0,0,0,0,0,-0.0118,-0.0115,-0.012,-0.0086,-0.0078,-0.0069,-0.0038,-0.0029,-0.0015,-0.0011,0.0046,0.0057,0.0093,0.0129,0.0139,0.0132,0.016,0.0221,0.022,0.0219,0.0153,0.0147,0.0142,0,0,0,0,0,-0.012,-0.0134,-0.0121,-0.0118,-0.0087,-0.007,-0.0064,-0.0032,-0.0016,-0.0016,0.0024,0.0055,0.013,0.0132,0.0143,0.0138,0.0221,0.022,0.0219,0.0155,0.0148,0.0142,0,0,0,0,0,0,-0.0149,-0.0129,-0.0114,-0.012,-0.0099,-0.0062,-0.0061,-0.0038,-0.0007,-0.0002,0.0052,0.0065,0.0087,0.0121,0.0121,0.0154,0.018,0.0181,0.0128,0.0121,0.0116,0.0109,0.0164,0,0,0,0,0,-0.016,-0.0165,-0.0137,-0.0141,-0.0135,-0.0099,-0.0088,-0.0067,-0.0035,-0.0021,0.0018,0.0059,0.0091,0.0113,0.0144,0.0165,0.0201,0.0169,0.0163,0.0158,0.016,0.0204,0.0202,0.0215,0.0215,0.0215,0,0,-0.0172,-0.0162,-0.0164,-0.0148,-0.0129,-0.0129,-0.0091,-0.0081,-0.0075,-0.0014,0.0004,0.004,0.0091,0.0111,0.0125,0.0141,0.0171,0.0157,0.0152,0.0157,0.0203,0.0201,0.02,0.0215,0.0215,0.0215,0,0,-0.0207,-0.0192,-0.0211,-0.0199,-0.018,-0.0155,-0.0156,-0.0123,-0.0102,-0.0082,-0.0038,-0.0006,0.0042,0.0078,0.0103,0.0089,0.0138,0.0095,0.0069,0.0111,0.011,0.011,0.0144,0.0148,0.0097,0.0097,0.0097,0,-0.0224,-0.0241,-0.0213,-0.0227,-0.0222,-0.0172,-0.0187,-0.016,-0.0119,-0.0102,-0.0086,-0.0014,0.0027,0.0062,0.0057,0.0077,0.0106,0.0088,0.0104,0.0105,0.0106,0.0141,0.0146,0.0094,0.0094,0.0094,0.0095,0,-0.0273,-0.0284,-0.0294,-0.0294,-0.0283,-0.0287,-0.0248,-0.0229,-0.0198,-0.0166,-0.0129,-0.0073,-0.0027,-0.0013,0.002,0.0047,0.0066,0.0087,0.0118,0.01,0.0138,0.0145,0.0089,0.009,0.0091,0.0092,0,0,-0.0312,-0.0328,-0.033,-0.0341,-0.0319,-0.0314,-0.0301,-0.0271,-0.0256,-0.0213,-0.0192,-0.0136,-0.01,-0.0069,-0.0023,0.0017,0.0047,0.0051,0.0055,0.0081,0.0135,0.0166,0.0176,0.0071,0.0072,0.0073,0.0154,0,-0.0358,-0.0408,-0.0393,-0.0421,-0.044,-0.0389,-0.0378,-0.0341,-0.0299,-0.0264,-0.0197,-0.0163,-0.0122,-0.0101,-0.0056,0.0023,0.0062,0.0023,0.0152,0.0156,0.0183,0.0184,0.0186,0.026,0.0161,0.0162,0.0163,0,-0.0409,-0.0435,-0.0485,-0.0485,-0.0485,-0.0488,-0.0452,-0.0435,-0.0368,-0.0333,-0.0283,-0.0226,-0.0161,-0.0126,-0.0003,-0.0031,0.0044,0.0105,0.011,0.0171,0.0199,0.0266,0.0276,0.0174,0.0173,0.0172,0.0172,0,-0.0459,-0.049,-0.0533,-0.0537,-0.0532,-0.0532,-0.0515,-0.0462,-0.0441,-0.0378,-0.0355,-0.0269,-0.0221,-0.0123,0.0006,0.0002,0.0145,0.0157,0.0255,0.0258,0.0301,0.0307,0.0243,0.0243,0.0243,0.0242,0.0242,0,-0.0515,-0.0543,-0.0563,-0.0587,-0.0616,-0.0587,-0.0591,-0.0557,-0.0506,-0.0481,-0.0399,-0.0355,-0.0217,-0.0115,-0.0006,0.0147,0.0138,0.0255,0.0285,0.0276,0.0278,0.0239,0.0238,0.0246,0.0245,0.0244,0.0244,0,-0.0566,-0.0582,-0.0631,-0.0646,-0.0649,-0.067,-0.065,-0.0644,-0.0589,-0.0555,-0.0537,-0.0414,-0.0274,-0.0132,0.0042,0.0135,0.0274,0.033,0.0306,0.0333,0.0358,0.0352,0.0441,0.0443,0.0445,0.0446,0.0447,0,-0.0601,-0.0636,-0.0684,-0.0713,-0.0725,-0.0742,-0.0746,-0.0697,-0.0681,-0.0582,-0.0565,-0.0428,-0.0307,-0.0047,0.014,0.0336,0.0328,0.0441,0.0438,0.036,0.0381,0.0372,0.0364,0.0465,0.0466,0.0467,0.0468,0,-0.0661,-0.0679,-0.0721,-0.0785,-0.0813,-0.0831,-0.0828,-0.0825,-0.0751,-0.0689,-0.0573,-0.0467,-0.0214,0.0024,0.0265,0.0374,0.0408,0.0467,0.0408,0.0411,0.0389,0.0406,0.0397,0.0477,0.0476,0.0475,0.0475,0.0474,-0.0698,-0.0746,-0.0799,-0.0854,-0.0885,-0.0903,-0.0905,-0.0866,-0.0813,-0.0684,-0.058,-0.0371,-0.0168,0.0208,0.0367,0.051,0.0503,0.0549,0.0543,0.0538,0.0522,0.0504,0.061,0.061,0.0609,0.0609,0.0609,0,-0.0739,-0.079,-0.0854,-0.0916,-0.095,-0.0948,-0.094,-0.0903,-0.0821,-0.0659,-0.05,-0.0233,0.0039,0.0238,0.0486,0.062,0.0594,0.063,0.0581,0.0573,0.0566,0.0548,0.0645,0.0646,0.0646,0.0646,0,0,-0.0764,-0.084,-0.0876,-0.0952,-0.0982,-0.0996,-0.0984,-0.09,-0.0775,-0.0588,-0.0399,-0.0169,0.0076,0.0259,0.0424,0.0547,0.0516,0.0548,0.051,0.0426,0.0416,0.0517,0.0481,0,0,0,0,0]}],[{"header":{"parameterUnit":"m.s-1","parameterCategory":2,"la1":30.2991,"la2":30.254,"lo1":-89.0895,"lo2":-89.0444,"dy":0.0017,"dx":0.0017,"nx":28,"ny":28,"refTime":"2024-06-07T03:00:00:Z","depth":"4","parameterNumber":2,"parameterNumberName":"U-component_of_CURRENTS"},"data":[0,0,0,0,0,0,0,0,0,0,0,0,0,0,0,0,0,0,0,0,0,0,0,0,0,0,0,0,0,0,0,0,0,0,0,0,0,0,0,0,0,0,0,0,0,0,0,0,0,0,0,0,0,0,0,0,0,0,-0.1255,-0.1255,0,-0.132,-0.132,-0.1321,-0.1348,-0.1348,-0.1348,-0.1348,-0.1416,-0.1418,-0.142,0,0,0,0,0,0,0,0,0,0,0,0,0,-0.1163,-0.1164,-0.1254,-0.1255,-0.1256,-0.132,-0.132,-0.1321,-0.1348,-0.1348,-0.1348,-0.1348,-0.1415,-0.1418,-0.142,0,0,0,0,0,0,0,0,0,0,0,0,0,-0.1211,-0.1165,-0.1254,-0.1279,-0.1282,-0.1319,-0.132,-0.1321,-0.1348,-0.1348,-0.1348,-0.1348,-0.1415,-0.1417,-0.142,-0.1436,0,0,-0.1428,-0.1429,0,0,0,0,0,0,0,0,-0.1208,-0.1214,-0.1274,-0.1277,-0.128,-0.1327,-0.1313,-0.136,-0.1348,-0.1321,-0.1348,-0.1348,-0.1388,-0.1393,-0.1402,-0.1439,-0.1442,-0.1428,-0.143,-0.1431,-0.1432,0,0,0,0,0,0,0,-0.1205,-0.1212,-0.1279,-0.1275,-0.1279,-0.129,-0.1296,-0.1322,-0.1352,-0.1323,-0.1326,-0.1336,-0.1389,-0.14,-0.1404,-0.1443,-0.1428,-0.1431,-0.1432,-0.1433,-0.1559,-0.1561,0,0,0,0,0,0,-0.12,-0.1209,-0.1277,-0.1281,-0.1246,-0.1291,-0.1299,-0.1311,-0.1352,-0.1359,-0.1336,-0.1337,-0.1395,-0.1401,-0.1407,-0.1481,-0.1431,-0.1434,-0.1435,-0.1557,-0.156,-0.1561,0,0,0,0,0,0,-0.1198,-0.1206,-0.1274,-0.1247,-0.1257,-0.1293,-0.1306,-0.1312,-0.1342,-0.1362,-0.1368,-0.1362,-0.1395,-0.1403,-0.1455,-0.1482,-0.1435,-0.1437,-0.1555,-0.1558,-0.156,-0.1596,0,0,0,0,0,0,-0.1195,-0.1204,-0.1221,-0.1247,-0.1258,-0.1311,-0.1307,-0.1313,-0.1348,-0.135,-0.1386,-0.1391,-0.1396,-0.1451,-0.1458,-0.1485,-0.1439,-0.1553,-0.1557,-0.156,-0.1592,-0.1599,-0.1605,0,0,0,0,0,-0.1191,-0.1211,-0.1222,-0.123,-0.1277,-0.1312,-0.132,-0.1344,-0.1349,-0.1369,-0.1398,-0.1391,-0.1476,-0.1455,-0.1462,-0.149,-0.1552,-0.1556,-0.1559,-0.159,-0.1598,-0.1605,0,0,0,0,0,0,-0.1181,-0.1217,-0.1228,-0.1259,-0.1291,-0.1318,-0.1341,-0.1356,-0.1395,-0.1403,-0.1416,-0.1424,-0.1478,-0.1484,-0.1461,-0.1538,-0.1512,-0.1517,-0.1532,-0.154,-0.1547,-0.1536,-0.1442,0,0,0,0,0,-0.1186,-0.1211,-0.1245,-0.1272,-0.1289,-0.1319,-0.134,-0.1359,-0.1391,-0.1408,-0.1435,-0.1466,-0.1497,-0.1519,-0.1546,-0.1591,-0.1576,-0.1615,-0.1621,-0.1626,-0.1624,-0.1633,-0.1639,-0.1574,-0.1574,-0.1574,0,0,-0.1191,-0.1213,-0.123,-0.1272,-0.1297,-0.1333,-0.1332,-0.1372,-0.1407,-0.141,-0.1471,-0.1492,-0.1515,-0.1565,-0.1589,-0.1575,-0.1636,-0.1631,-0.1635,-0.163,-0.1638,-0.1644,-0.1649,-0.1577,-0.1576,-0.1576,0,0,-0.1205,-0.1233,-0.1257,-0.1289,-0.1334,-0.1355,-0.1372,-0.1415,-0.1441,-0.1498,-0.1508,-0.1547,-0.1601,-0.162,-0.1635,-0.1695,-0.167,-0.1708,-0.1732,-0.1741,-0.1746,-0.175,-0.1728,-0.173,-0.1711,-0.1711,-0.1711,0,-0.1209,-0.1244,-0.127,-0.1304,-0.1335,-0.1368,-0.1404,-0.1438,-0.1496,-0.1518,-0.1525,-0.1603,-0.1624,-0.1673,-0.1695,-0.1708,-0.1697,-0.1698,-0.1747,-0.1751,-0.1754,-0.1731,-0.1733,-0.1713,-0.1713,-0.1712,-0.1712,0,-0.1237,-0.1275,-0.1294,-0.1347,-0.1384,-0.1423,-0.1471,-0.1513,-0.1547,-0.1574,-0.1636,-0.1667,-0.1707,-0.1725,-0.173,-0.1772,-0.1751,-0.1751,-0.172,-0.1762,-0.1736,-0.1737,-0.1716,-0.1715,-0.1715,-0.1714,0,0,-0.1216,-0.1296,-0.1306,-0.134,-0.1412,-0.1443,-0.1506,-0.1562,-0.1598,-0.1653,-0.1692,-0.1752,-0.176,-0.1778,-0.1791,-0.1803,-0.1819,-0.1791,-0.1791,-0.1757,-0.1817,-0.1688,-0.1676,-0.1827,-0.1828,-0.1829,-0.1784,0,-0.123,-0.1289,-0.1333,-0.1404,-0.1438,-0.1497,-0.1549,-0.1607,-0.1651,-0.1699,-0.1731,-0.1776,-0.1783,-0.1803,-0.182,-0.1824,-0.1825,-0.1829,-0.1793,-0.1791,-0.1661,-0.1674,-0.1831,-0.1785,-0.1785,-0.1785,-0.1785,0,-0.1234,-0.1277,-0.1337,-0.1427,-0.1449,-0.1502,-0.1583,-0.1636,-0.1704,-0.1736,-0.1781,-0.1801,-0.184,-0.1835,-0.1852,-0.1855,-0.1839,-0.1832,-0.183,-0.1696,-0.1663,-0.1739,-0.1786,-0.1786,-0.1786,-0.1786,-0.1786,0,-0.1181,-0.1279,-0.1325,-0.1358,-0.1461,-0.1507,-0.1568,-0.1645,-0.1685,-0.1756,-0.1779,-0.1828,-0.1848,-0.1853,-0.1843,-0.1853,-0.1836,-0.1846,-0.1708,-0.1698,-0.1812,-0.1808,-0.1843,-0.1843,-0.1844,-0.1844,-0.1844,0,-0.1157,-0.1201,-0.1311,-0.1335,-0.1407,-0.1488,-0.1558,-0.1621,-0.1694,-0.1727,-0.1791,-0.1805,-0.1855,-0.1851,-0.1842,-0.1762,-0.1833,-0.1701,-0.1678,-0.1827,-0.1826,-0.1811,-0.1808,-0.1842,-0.1842,-0.1843,-0.1843,0,-0.108,-0.115,-0.1216,-0.1336,-0.138,-0.143,-0.1553,-0.1589,-0.1669,-0.171,-0.173,-0.179,-0.1777,-0.1791,-0.1787,-0.1736,-0.1691,-0.1644,-0.1779,-0.1766,-0.1547,-0.1547,-0.1486,-0.1481,-0.1477,-0.1473,-0.147,0,-0.1045,-0.1064,-0.1198,-0.1243,-0.1304,-0.1395,-0.1448,-0.1561,-0.1596,-0.168,-0.1681,-0.1699,-0.172,-0.1595,-0.1637,-0.1582,-0.1569,-0.1534,-0.1561,-0.1526,-0.1511,-0.1518,-0.1523,-0.1464,-0.1462,-0.1461,-0.146,0,-0.0973,-0.1024,-0.1079,-0.1169,-0.1243,-0.1312,-0.1401,-0.1415,-0.1521,-0.1605,-0.1575,-0.1551,-0.1522,-0.1504,-0.1459,-0.1433,-0.1556,-0.149,-0.1499,-0.1525,-0.1499,-0.1489,-0.15,-0.1446,-0.1448,-0.1449,-0.145,0,-0.0923,-0.0947,-0.1019,-0.109,-0.117,-0.1203,-0.1268,-0.1306,-0.135,-0.1449,-0.1432,-0.145,-0.1503,-0.1424,-0.1393,-0.1342,-0.1331,-0.1299,-0.1318,-0.1335,-0.1306,-0.1252,-0.1092,0,0,0,0,0,-0.0868,-0.088,-0.0938,-0.1008,-0.1074,-0.1115,-0.122,-0.1283,-0.1386,-0.1323,-0.1373,-0.1337,-0.1279,-0.1296,-0.121,-0.1328,-0.1341,-0.1224,-0.1316,-0.1365,-0.1382,-0.1363,0,0,0,0,0,0,-0.0834,-0.0873,-0.0903,-0.0909,-0.0929,-0.0988,-0.1044,-0.1119,-0.1101,-0.1203,-0.1174,-0.1244,-0.1206,-0.1287,-0.1172,-0.1177,-0.1206,-0.1246,-0.1243,-0.1356,-0.1371,-0.1384,-0.1371,0,0,0,0,0]},{"header":{"parameterUnit":"m.s-1","parameterCategory":2,"la1":30.2991,"la2":30.254,"lo1":-89.0895,"lo2":-89.0444,"dy":0.0017,"dx":0.0017,"nx":28,"ny":28,"refTime":"2024-06-07T03:00:00:Z","depth":"4","parameterNumber":3,"parameterNumberName":"V-component_of_CURRENTS"},"data":[0,0,0,0,0,0,0,0,0,0,0,0,0,0,0,0,0,0,0,0,0,0,0,0,0,0,0,0,0,0,0,0,0,0,0,0,0,0,0,0,0,0,0,0,0,0,0,0,0,0,0,0,0,0,0,0,0,0,-0.0067,-0.0067,0,-0.0022,-0.0021,-0.0021,0.0017,0.0018,0.0018,0.0018,0.0109,0.0112,0.0114,0,0,0,0,0,0,0,0,0,0,0,0,0,-0.009,-0.009,-0.0067,-0.0067,-0.0066,-0.0022,-0.0021,-0.002,0.0017,0.0018,0.0018,0.0019,0.0109,0.0111,0.0114,0,0,0,0,0,0,0,0,0,0,0,0,0,-0.0065,-0.009,-0.0067,-0.0043,-0.004,-0.0022,-0.0021,-0.002,0.0017,0.0018,0.0018,0.0019,0.0108,0.0111,0.0114,0.0125,0,0,0.0124,0.0125,0,0,0,0,0,0,0,0,-0.0066,-0.0064,-0.0047,-0.0045,-0.0042,-0.0008,0.0004,0.003,0.0017,-0.0003,0.0018,0.0019,0.0073,0.0079,0.0088,0.0129,0.0133,0.0124,0.0126,0.0128,0.0129,0,0,0,0,0,0,0,-0.0068,-0.0065,-0.0048,-0.0047,-0.0043,-0.0023,-0.002,0.0009,0.0033,-0.0002,0.0001,0.0004,0.0075,0.0085,0.009,0.0134,0.0124,0.0127,0.0129,0.013,0.0187,0.0186,0,0,0,0,0,0,-0.0078,-0.0067,-0.005,-0.0047,-0.0054,-0.0024,-0.0019,-0.0019,0.0032,0.004,0.0004,0.0006,0.0079,0.0087,0.0094,0.0109,0.0128,0.0131,0.0132,0.0187,0.0187,0.0186,0,0,0,0,0,0,-0.0079,-0.0077,-0.0051,-0.0057,-0.0052,-0.0024,-0.0023,-0.0018,-0.0008,0.0036,0.0044,0.0008,0.008,0.0089,0.0116,0.0113,0.0132,0.0135,0.0188,0.0187,0.0186,0.014,0,0,0,0,0,0,-0.008,-0.0078,-0.0083,-0.0058,-0.0052,-0.0046,-0.0024,-0.0017,-0.0007,-0.0004,0.0042,0.0051,0.0081,0.0111,0.0119,0.0118,0.0137,0.0188,0.0187,0.0187,0.0142,0.0138,0.0135,0,0,0,0,0,-0.0081,-0.0091,-0.0083,-0.0081,-0.0059,-0.0047,-0.0042,-0.002,-0.0008,-0.0008,0.0024,0.0049,0.0112,0.0113,0.0123,0.0123,0.0189,0.0188,0.0187,0.0144,0.0139,0.0135,0,0,0,0,0,0,-0.0102,-0.0088,-0.0078,-0.0083,-0.0069,-0.0041,-0.0041,-0.0024,0.0,0.0004,0.0048,0.0058,0.0078,0.0105,0.0106,0.0135,0.0153,0.0154,0.0117,0.0113,0.0109,0.0102,0.014,0,0,0,0,0,-0.011,-0.0115,-0.0095,-0.0099,-0.0095,-0.0068,-0.0061,-0.0046,-0.0021,-0.001,0.0021,0.0054,0.0081,0.0101,0.0126,0.0146,0.0178,0.015,0.0146,0.0143,0.0143,0.0192,0.0193,0.0183,0.0183,0.0183,0,0,-0.012,-0.0112,-0.0115,-0.0104,-0.0091,-0.0091,-0.0063,-0.0056,-0.0051,-0.0003,0.0011,0.004,0.0082,0.0101,0.0113,0.0125,0.016,0.0142,0.0139,0.0141,0.0191,0.0192,0.0193,0.0182,0.0183,0.0183,0,0,-0.0144,-0.0136,-0.0149,-0.0142,-0.0129,-0.0111,-0.0112,-0.0087,-0.0072,-0.0055,-0.0021,0.0008,0.0046,0.0079,0.0101,0.0092,0.0134,0.0095,0.0077,0.0124,0.0126,0.0127,0.0158,0.0163,0.0098,0.0098,0.0098,0,-0.0157,-0.0169,-0.015,-0.0161,-0.0159,-0.0124,-0.0135,-0.0114,-0.0083,-0.0068,-0.0059,0.0003,0.0037,0.0074,0.0068,0.0084,0.0111,0.0092,0.012,0.0122,0.0125,0.0156,0.0162,0.0095,0.0096,0.0096,0.0096,0,-0.019,-0.02,-0.0208,-0.0209,-0.0203,-0.0207,-0.0179,-0.0166,-0.0143,-0.0117,-0.0083,-0.0036,0.0003,0.0016,0.0041,0.0074,0.0085,0.0106,0.0132,0.0123,0.0156,0.0163,0.0092,0.0093,0.0093,0.0094,0,0,-0.0217,-0.023,-0.0233,-0.0244,-0.023,-0.0228,-0.0218,-0.0195,-0.0182,-0.0147,-0.0125,-0.0077,-0.0047,-0.0021,0.0017,0.0059,0.0097,0.0085,0.0089,0.0116,0.019,0.0181,0.0188,0.0124,0.0125,0.0126,0.0202,0,-0.0249,-0.0285,-0.0276,-0.0301,-0.0316,-0.0283,-0.0275,-0.0246,-0.0213,-0.0182,-0.0122,-0.0092,-0.0061,-0.0042,0.0004,0.0074,0.0115,0.0074,0.0195,0.0198,0.0192,0.0196,0.013,0.0207,0.0209,0.021,0.0211,0,-0.0283,-0.0303,-0.034,-0.0348,-0.035,-0.0358,-0.0334,-0.0321,-0.0263,-0.0234,-0.0186,-0.0138,-0.0075,-0.0048,0.0069,0.0041,0.0108,0.0164,0.0168,0.0183,0.0203,0.0222,0.0224,0.0223,0.0222,0.0221,0.0221,0,-0.0314,-0.0343,-0.0376,-0.0382,-0.0385,-0.0391,-0.0386,-0.0342,-0.0325,-0.0268,-0.0244,-0.0163,-0.0118,-0.0027,0.0083,0.0079,0.0214,0.0228,0.0284,0.0284,0.029,0.0288,0.0314,0.0314,0.0314,0.0314,0.0314,0,-0.0347,-0.0373,-0.0399,-0.0419,-0.0452,-0.0435,-0.0446,-0.0421,-0.0377,-0.035,-0.0279,-0.0232,-0.0109,-0.0016,0.0078,0.0199,0.0214,0.0282,0.0306,0.0266,0.026,0.0295,0.0291,0.0317,0.0316,0.0316,0.0315,0,-0.0374,-0.0391,-0.0436,-0.0462,-0.0474,-0.0499,-0.0501,-0.0495,-0.0448,-0.041,-0.0393,-0.0277,-0.0154,-0.0032,0.0128,0.0191,0.0308,0.0349,0.0286,0.0306,0.0344,0.0337,0.0414,0.0414,0.0414,0.0415,0.0415,0,-0.0391,-0.0417,-0.0478,-0.0514,-0.0534,-0.0564,-0.0577,-0.0542,-0.0524,-0.0429,-0.0405,-0.0283,-0.0196,0.0022,0.0143,0.0312,0.0339,0.0384,0.0372,0.034,0.0357,0.0349,0.0342,0.0415,0.0415,0.0416,0.0416,0,-0.0423,-0.0448,-0.0489,-0.0568,-0.0608,-0.0634,-0.0644,-0.0631,-0.0566,-0.0526,-0.0392,-0.0268,-0.0126,0.0034,0.0163,0.0286,0.0343,0.0388,0.0388,0.0377,0.0343,0.0358,0.035,0.0417,0.0417,0.0417,0.0416,0,-0.0445,-0.0489,-0.0551,-0.0614,-0.0666,-0.0684,-0.0685,-0.0635,-0.06,-0.0476,-0.0432,-0.0263,-0.0158,0.0022,0.0144,0.0257,0.0284,0.031,0.0315,0.0315,0.0259,0.02,0.0254,0,0,0,0,0,-0.046,-0.0515,-0.0588,-0.0656,-0.0703,-0.0724,-0.0715,-0.0693,-0.0627,-0.0533,-0.0472,-0.0328,-0.0115,-0.0019,0.0095,0.0123,0.0275,0.0255,0.0299,0.0423,0.0422,0.0372,0,0,0,0,0,0,-0.0476,-0.0547,-0.0596,-0.067,-0.0714,-0.0751,-0.0743,-0.0699,-0.0626,-0.054,-0.0419,-0.0323,-0.0118,-0.0184,0.009,0.0125,0.0163,0.0365,0.0367,0.0424,0.0423,0.0422,0.037,0,0,0,0,0]}]]